Showing default

KUIPER-00433, 68869

Orbit data source: Space-Track

KUIPER-00433, 68869 is a payload satellite owned by Kuiper Systems (US) in LEO that was launched on Tue, 28 Apr 2026 UTC via an ATLAS V 551 launch vehicle from the Air Force Eastern Test Range (AFETR). Payload-class satellites include a variety of spacecraft equipped with specific instruments for various scientific and technological missions. These include communications satellites like Starlink; space stations such as the ISS; scientific satellites like the Hubble; Earth observation satellites from companies like Planet Labs, Umbra, and HawkEye 360; GPS; miniature CubeSats for education and research; and military/defense satellites.

Loading next visibility...
Identifier
68869, 2026-095F
Orbit
LEO
Country
Flag of USUS
Related business
Manufacturer
Kuiper Systems
Mission
Operational spacecraft
Bus & Motor
KUIPER, Unknown motor
Mass
~490 kg wet, ~490 kg dry
Launch date (UTC)
2026-04-28 (2 months ago)
Launch vehicle
ATLAS V 551
Launch site
Air Force Eastern Test Range (AFETR)
Object type
Payload
Rocket body
Debris
Shape & HBR
Unknown shape, 3.4 m
Radar Cross Section
Large (>1 m²)

Expand to show TLE details & history
Last TLE update: 10 hours ago

TLE from 10 hours ago
0 KUIPER-00433
1 68869U 26095F   26171.43795355  .00001807  00000-0  26631-3 0  9994
2 68869  51.9010 238.7817 0000830  78.9282 281.1773 14.79870867  8068
Epoch: 2026-06-20T10:30Z
TLE epoch observation values (Epoch: 2026-06-20T10:30:39.186Z)
Latitude
-0.00008°
Longitude
172.46578°
Altitude
630.366 km
Speed
7.545 km/s
True Right ascension
15h 55m 07s
True Declination
0° 00' 00"
Sunlit
Object was in full shadow at epoch
Visualization orbit readout
Latitude
Unknown
Longitude
Unknown
Altitude
Unknown
Speed
Unknown
Apparent Right ascension
Unknown
Apparent Declination
Unknown
Sunlit
N/A
Visualization observer readout
Local Sidereal Time
07:20:23
Azimuth
Unknown
Elevation
Unknown
Doppler factor
Unknown
Orbital elements
Apogee altitude
630.764 km
Perigee altitude
629.601 km
Semi-major axis
7,008.32 km
Eccentricity
0.00008
Inclination
51.901°
RAAN
238.7817°
Arg. of periapsis
78.9282°
True anomaly
281.16797°
Mean anomaly
281.1773°
Eccentric anomaly
281.17263°
Mean motion
3.69932 °/min
Orbital period
97.32 mins
BSTAR
0.00026631
Loading maneuver chart data...
Computing Atmospheric mass density...
Loading historical data...
Loading historical data...
Loading historical data...
Loading historical data...
Loading historical data...
Loading historical data...
Loading historical data...

Documentation

Showing up to 5 results
|